Location: Unspecified
(0.0000°N, 0.0000°E)
Time: 17:14:35
(UTC+00:00)

Vanguard 1 - Visible Passes

Search period start: 16 August 2017 00:00
Search period end: 26 August 2017 00:00
Orbit: 653 x 3831 km, 34.2° (Epoch: 15 August)

Date Brightness Start Highest point End Pass type
(mag) Time Alt. Az. Time Alt. Az. Time Alt. Az.
16 Aug 13.1 01:31:45 52° E 01:31:45 52° E 01:47:43 10° ESE visible
16 Aug 12.8 03:44:37 47° W 03:52:09 58° SW 04:12:38 10° SE visible
16 Aug 13.4 23:06:09 10° NNW 23:40:07 - E 23:09:15 18° NNW visible
17 Aug 12.9 01:52:57 59° ESE 01:52:57 59° ESE 02:09:43 10° SE visible
17 Aug 13.0 04:05:47 38° WSW 04:14:12 47° SW 04:33:37 10° SE visible
17 Aug 13.5 21:11:07 10° NNE 21:14:56 11° NNE 21:15:32 11° NNE visible
17 Aug 13.6 23:26:41 10° NNW 00:01:03 12° ESE 00:02:09 10° ESE visible
18 Aug 12.9 02:13:52 63° SE 02:13:52 63° SE 02:31:23 10° SE visible
18 Aug 13.2 04:26:40 29° WSW 04:36:27 38° SSW 04:54:32 10° SSE visible
18 Aug 13.3 21:29:54 10° N 21:34:32 16° NNE 21:34:32 16° NNE visible
19 Aug 13.7 00:21:44 17° ESE 00:21:44 17° ESE 00:25:16 10° ESE visible
19 Aug 12.8 02:34:32 61° S 02:34:32 61° S 02:52:48 10° SE visible
19 Aug 13.3 04:47:18 21° WSW 04:58:59 31° SSW 05:15:27 10° SSE visible
19 Aug 13.2 21:49:42 10° N 21:53:38 18° N 21:53:38 18° N visible
20 Aug 13.9 00:42:13 22° ESE 00:42:13 22° ESE 00:47:49 10° ESE visible
20 Aug 12.9 02:54:59 55° SSW 02:54:59 55° SSW 03:14:03 10° SE visible
20 Aug 13.5 05:07:45 14° WSW 05:21:51 25° SSW 05:36:26 10° SSE visible
20 Aug 13.2 22:09:52 10° NNW 22:12:51 19° N 22:12:51 19° N visible
21 Aug 13.7 01:02:31 27° SE 01:02:31 27° SE 01:09:56 10° SE visible
21 Aug 13.0 03:15:16 46° SSW 03:15:16 46° SSW 03:35:11 10° SE visible
21 Aug 13.6 05:30:01 10° WSW 05:45:05 20° SSW 05:57:36 10° SSE visible
21 Aug 13.3 22:30:14 10° NNW 22:32:07 17° NNW 22:32:07 17° NNW visible
22 Aug 13.6 01:22:40 31° SE 01:22:40 31° SE 01:31:43 10° SE visible
22 Aug 13.1 03:35:24 38° SW 03:36:31 38° SSW 03:56:19 10° SSE visible
22 Aug 13.1 20:35:07 10° N 20:38:47 13° NNE 20:38:47 13° NNE visible
22 Aug 13.4 22:50:48 10° NW 23:29:58 - ESE 22:51:27 12° NNW visible
23 Aug 13.5 01:42:41 35° SE 01:42:41 35° SE 01:53:15 10° SE visible
23 Aug 13.3 03:55:25 30° SW 03:59:19 31° SSW 04:17:28 10° SSE visible
23 Aug 12.9 20:54:10 10° N 20:58:10 18° NNE 20:58:10 18° NNE visible
23 Aug13.623:49:53ESE23:49:53ESE23:10:51NWvisible
24 Aug 13.4 02:02:36 36° SSE 02:02:36 36° SSE 02:14:38 10° SE visible
24 Aug 13.5 04:15:19 22° SW 04:22:30 25° SSW 04:38:48 10° SSE visible
24 Aug 12.8 21:14:01 10° NNW 21:17:38 21° N 21:17:38 21° N visible
25 Aug13.900:09:42SE00:09:42SE23:30:19NWvisible
25 Aug 13.4 02:22:25 36° S 02:22:25 36° S 02:35:55 10° SE visible
25 Aug 13.7 04:35:07 16° SW 04:46:03 22° SSW 05:00:26 10° SSE visible
25 Aug 12.8 21:34:14 10° NNW 21:37:09 22° N 21:37:09 22° N visible
